CW2857 Weather Reports


time (UTC)temp
F
wind
direction
speed
knots
gust
knots
rain 1hr
in
rain 24hr
in
rain mn
in
humidity
%
barometer
mb
20260507122546 62 225 2.6 7.0 0.00 0.00 0.00 45 1011.4
20260507122047 62 264 3.5 8.7 0.00 0.00 0.00 45 1011.4
20260507121545 62 237 3.5 8.7 0.00 0.00 0.00 43 1011.4
20260507121044 61 225 2.6 6.1 0.00 0.00 0.00 45 1011.4
20260507120544 61 259 3.5 8.7 0.00 0.00 0.00 45 1011.5
20260507120047 61 258 4.3 8.7 0.00 0.00 0.00 47 1011.5
20260507115544 62 259 3.5 7.8 0.00 0.00 0.00 46 1011.5
20260507115044 62 269 5.2 8.7 0.00 0.00 0.00 46 1011.5
20260507114551 61 283 2.6 6.1 0.00 0.00 0.00 47 1011.5
20260507114045 61 264 3.5 6.1 0.00 0.00 0.00 47 1011.5
20260507113542 61 267 3.5 6.1 0.00 0.00 0.00 47 1011.6
20260507113043 61 256 2.6 6.1 0.00 0.00 0.00 47 1011.5
20260507112541 61 268 2.6 6.1 0.00 0.00 0.00 45 1011.7
20260507112041 61 259 1.7 4.3 0.00 0.00 0.00 43 1011.6
20260507111552 61 285 0.9 3.5 0.00 0.00 0.00 40 1011.6
20260507111039 61 277 1.7 3.5 0.00 0.00 0.00 40 1011.6
20260507110539 61 279 1.7 3.5 0.00 0.00 0.00 40 1011.7
20260507110139 62 279 0.9 7.0 0.00 0.00 0.00 40 1011.7
20260507105537 62 260 3.5 7.0 0.00 0.00 0.00 40 1011.8
20260507105037 62 267 2.6 4.3 0.00 0.00 0.00 40 1011.8
20260507104537 62 254 2.6 5.2 0.00 0.00 0.00 41 1011.8
20260507104039 62 261 1.7 5.2 0.00 0.00 0.00 41 1011.7
20260507103536 62 242 3.5 5.2 0.00 0.00 0.00 40 1011.8
20260507103036 62 257 2.6 4.3 0.00 0.00 0.00 41 1011.8
20260507102534 63 267 2.6 4.3 0.00 0.00 0.00 42 1011.7
20260507102034 63 261 1.7 7.8 0.00 0.00 0.00 42 1011.7
20260507101533 64 287 4.3 8.7 0.00 0.00 0.00 42 1011.8
20260507101034 63 279 4.3 8.7 0.00 0.00 0.00 43 1011.8
20260507100532 63 278 5.2 8.7 0.00 0.00 0.00 42 1011.8
20260507100034 63 279 5.2 8.7 0.00 0.00 0.00 44 1011.8
20260507095531 63 285 4.3 7.8 0.00 0.00 0.00 44 1011.8
20260507095033 63 281 2.6 7.8 0.00 0.00 0.00 39 1011.8
20260507094529 63 298 2.6 7.8 0.00 0.00 0.00 41 1011.9
20260507094031 64 23 1.7 5.2 0.00 0.00 0.00 38 1011.9
20260507093527 64 333 1.7 5.2 0.00 0.00 0.00 39 1011.9
20260507093034 64 306 2.6 7.0 0.00 0.00 0.00 42 1011.9
20260507092526 65 328 1.7 7.0 0.00 0.00 0.00 39 1011.9
20260507092025 65 307 3.5 7.8 0.00 0.00 0.00 42 1011.9
20260507091525 65 302 4.3 7.8 0.00 0.00 0.00 42 1012.0
20260507091024 65 294 2.6 7.0 0.00 0.00 0.00 42 1011.9
20260507090522 66 290 0.9 7.8 0.00 0.00 0.00 41 1012.0
20260507090022 66 261 3.5 9.6 0.00 0.00 0.00 40 1011.9
20260507085521 66 278 4.3 9.6 0.00 0.00 0.00 40 1012.0
20260507085022 66 273 6.1 9.6 0.00 0.00 0.00 40 1012.1
20260507084521 66 251 5.2 9.6 0.00 0.00 0.00 38 1012.1
20260507084025 66 257 6.1 9.6 0.00 0.00 0.00 39 1012.0
20260507083519 66 246 4.3 10.4 0.00 0.00 0.00 40 1012.1
20260507083021 67 246 6.1 13.9 0.00 0.00 0.00 39 1012.1
20260507082516 67 258 6.1 13.9 0.00 0.00 0.00 38 1012.2
20260507082016 67 270 7.0 13.9 0.00 0.00 0.00 38 1012.2
20260507081528 67 265 6.1 12.2 0.00 0.00 0.00 37 1012.2
20260507081015 67 263 5.2 11.3 0.00 0.00 0.00 38 1012.1
20260507080520 67 261 7.8 11.3 0.00 0.00 0.00 38 1012.1
20260507080019 68 237 4.3 9.6 0.00 0.00 0.00 38 1012.1
20260507075513 68 249 6.1 9.6 0.00 0.00 0.00 37 1012.1
20260507075012 68 244 5.2 13.0 0.00 0.00 0.00 37 1012.1
20260507074511 68 267 6.1 13.0 0.00 0.00 0.00 37 1012.1
20260507074014 67 284 4.3 8.7 0.00 0.00 0.00 38 1012.1
20260507073511 68 227 5.2 8.7 0.00 0.00 0.00 38 1012.1
20260507073011 68 279 5.2 10.4 0.00 0.00 0.00 38 1012.0
20260507072511 68 230 6.1 12.2 0.00 0.00 0.00 38 1012.1
20260507072010 68 249 6.1 12.2 0.00 0.00 0.00 38 1012.1
20260507071509 68 215 7.0 12.2 0.00 0.00 0.00 38 1012.0
20260507071008 67 243 4.3 9.6 0.00 0.00 0.00 38 1012.1
20260507070512 67 247 4.3 9.6 0.00 0.00 0.00 38 1012.0
20260507070010 68 252 5.2 9.6 0.00 0.00 0.00 37 1012.1
20260507065509 68 240 3.5 8.7 0.00 0.00 0.00 36 1012.1
20260507065005 68 214 4.3 7.0 0.00 0.00 0.00 34 1012.1
20260507064505 69 242 4.3 8.7 0.00 0.00 0.00 33 1012.0
20260507064005 69 228 4.3 11.3 0.00 0.00 0.00 32 1012.1
20260507063505 69 258 6.1 11.3 0.00 0.00 0.00 32 1012.1
20260507063004 69 283 4.3 8.7 0.00 0.00 0.00 29 1012.1
20260507062504 68 265 3.5 9.6 0.00 0.00 0.00 29 1012.1
20260507062006 68 266 6.1 9.6 0.00 0.00 0.00 28 1012.1
20260507061507 68 233 2.6 6.1 0.00 0.00 0.00 27 1012.1
20260507061004 68 235 3.5 7.0 0.00 0.00 0.00 25 1012.1
20260507060504 69 211 3.5 7.0 0.00 0.00 0.00 24 1012.1
20260507060004 69 229 2.6 7.0 0.00 0.00 0.00 22 1012.1
20260507055504 68 225 2.6 7.8 0.00 0.00 0.00 21 1012.2
20260507055003 68 221 2.6 7.8 0.00 0.00 0.00 21 1012.2
20260507054504 68 244 2.6 7.0 0.00 0.00 0.00 21 1012.1
20260507054004 67 235 3.5 7.8 0.00 0.00 0.00 21 1012.1
20260507053502 63 199 4.3 7.8 0.00 0.00 0.00 23 1012.2
20260507053003 63 246 0.9 2.6 0.00 0.00 0.00 23 1012.2
20260507052502 63 249 0.0 0.9 0.00 0.00 0.00 23 1012.1
20260507052002 64 249 0.0 0.9 0.00 0.00 0.00 23 1012.1
20260507051502 65 249 0.0 1.7 0.00 0.00 0.00 22 1012.1
20260507051001 65 249 0.0 2.6 0.00 0.00 0.00 21 1012.1
20260507050501 65 249 0.9 2.6 0.00 0.00 0.00 21 1012.1
20260507050007 66 249 0.0 3.5 0.00 0.00 0.00 21 1012.0
20260507045501 66 248 1.7 3.5 0.00 0.00 0.00 21 1012.0
20260507045002 65 194 0.0 1.7 0.00 0.00 0.00 22 1012.0
20260507044602 65 192 0.0 1.7 0.00 0.00 0.00 21 1012.0
20260507044100 66 192 0.0 1.7 0.00 0.00 0.00 21 1012.0
20260507043600 67 192 0.0 1.7 0.00 0.00 0.00 20 1011.9
20260507043103 67 192 0.0 1.7 0.00 0.00 0.00 19 1011.8
20260507042559 68 192 0.9 2.6 0.00 0.00 0.00 19 1011.8
20260507042100 68 194 0.9 2.6 0.00 0.00 0.00 19 1011.7
20260507041612 68 195 0.9 2.6 0.00 0.00 0.00 19 1011.7
20260507041100 69 202 0.9 3.5 0.00 0.00 0.00 19 1011.7
20260507040600 69 202 0.9 3.5 0.00 0.00 0.00 18 1011.7
20260507040100 69 216 0.9 1.7 0.00 0.00 0.00 18 1011.7
20260507035559 69 226 0.9 1.7 0.00 0.00 0.00 19 1011.6
20260507035059 69 219 0.9 2.6 0.00 0.00 0.00 18 1011.7
20260507034610 69 261 1.7 3.5 0.00 0.00 0.00 18 1011.6
20260507034058 70 260 1.7 3.5 0.00 0.00 0.00 17 1011.5
20260507033602 71 259 1.7 5.2 0.00 0.00 0.00 17 1011.5
20260507033058 72 265 1.7 5.2 0.00 0.00 0.00 16 1011.4
20260507032558 73 262 2.6 4.3 0.00 0.00 0.00 15 1011.4
20260507032057 73 283 2.6 5.2 0.00 0.00 0.00 15 1011.5
20260507031600 73 260 1.7 6.1 0.00 0.00 0.00 15 1011.4
20260507031059 73 279 2.6 6.1 0.00 0.00 0.00 15 1011.5
20260507030558 73 271 3.5 6.1 0.00 0.00 0.00 15 1011.5
20260507025556 73 269 2.6 6.1 0.00 0.00 0.00 15 1011.4
20260507025057 74 277 2.6 5.2 0.00 0.00 0.00 15 1011.4
20260507024601 74 280 1.7 6.1 0.00 0.00 0.00 15 1011.3
20260507024055 74 296 1.7 7.0 0.00 0.00 0.00 15 1011.3
20260507023556 75 301 1.7 7.0 0.00 0.00 0.00 15 1011.3
20260507023111 75 283 2.6 8.7 0.00 0.00 0.00 15 1011.3
20260507022556 76 339 3.5 8.7 0.00 0.00 0.00 14 1011.3
20260507022056 76 301 3.5 8.7 0.00 0.00 0.00 14 1011.3
20260507021557 77 343 3.5 9.6 0.00 0.00 0.00 13 1011.3
20260507021055 78 314 5.2 9.6 0.00 0.00 0.00 13 1011.3
20260507020554 78 279 4.3 9.6 0.00 0.00 0.00 13 1011.3
20260507020055 78 315 4.3 9.6 0.00 0.00 0.00 13 1011.3
20260507015554 79 350 4.3 9.6 0.00 0.00 0.00 12 1011.3
20260507015055 79 355 4.3 9.6 0.00 0.00 0.00 12 1011.3
20260507014606 79 321 4.3 9.6 0.00 0.00 0.00 12 1011.4
20260507014053 80 331 3.5 10.4 0.00 0.00 0.00 12 1011.3
20260507013552 80 9 5.2 10.4 0.00 0.00 0.00 12 1011.4
20260507013111 80 343 3.5 10.4 0.00 0.00 0.00 12 1011.3
20260507012552 80 342 7.0 10.4 0.00 0.00 0.00 11 1011.3
20260507012052 81 35 5.2 9.6 0.00 0.00 0.00 11 1011.3
20260507011552 81 351 4.3 9.6 0.00 0.00 0.00 11 1011.3
20260507011051 82 5 2.6 7.8 0.00 0.00 0.00 10 1011.3
20260507010552 82 346 3.5 8.7 0.00 0.00 0.00 9 1011.4
20260507010051 82 360 3.5 8.7 0.00 0.00 0.00 9 1011.3
20260507005550 82 327 1.7 7.0 0.00 0.00 0.00 9 1011.3
20260507005051 82 350 2.6 8.7 0.00 0.00 0.00 9 1011.3
20260507004550 82 22 2.6 8.7 0.00 0.00 0.00 10 1011.3
20260507004050 82 355 4.3 10.4 0.00 0.00 0.00 9 1011.3
20260507003549 82 355 0.9 5.2 0.00 0.00 0.00 9 1011.3
20260507003049 82 346 2.6 7.8 0.00 0.00 0.00 10 1011.4
20260507002550 82 333 3.5 8.7 0.00 0.00 0.00 9 1011.4
20260507002049 81 327 2.6 7.8 0.00 0.00 0.00 10 1011.4
20260507001608 81 263 3.5 9.6 0.00 0.00 0.00 10 1011.4
20260507001052 81 343 3.5 11.3 0.00 0.00 0.00 10 1011.4
20260507000549 81 297 3.5 11.3 0.00 0.00 0.00 11 1011.4
20260507000049 82 10 4.3 8.7 0.00 0.00 0.00 10 1011.4
20260506235549 83 340 3.5 8.7 0.00 0.00 0.00 10 1011.4
20260506235048 82 288 2.6 7.8 0.00 0.00 0.00 10 1011.4
20260506234548 83 249 2.6 7.8 0.00 0.00 0.00 10 1011.4
20260506234050 83 344 2.6 8.7 0.00 0.00 0.00 10 1011.5
20260506233547 82 31 1.7 8.7 0.00 0.00 0.00 11 1011.5
20260506233048 81 336 2.6 10.4 0.00 0.00 0.00 11 1011.4
20260506232546 82 276 3.5 13.0 0.00 0.00 0.00 11 1011.6
20260506232046 82 304 4.3 13.0 0.00 0.00 0.00 10 1011.7
20260506231549 85 20 0.9 7.8 0.00 0.00 0.00 10 1011.7
20260506231046 84 289 2.6 7.8 0.00 0.00 0.00 10 1011.8
20260506230546 84 338 1.7 7.0 0.00 0.00 0.00 10 1011.8
20260506230045 83 355 3.5 7.8 0.00 0.00 0.00 10 1011.9
20260506225546 82 9 0.9 7.8 0.00 0.00 0.00 11 1012.0
20260506225045 82 9 3.5 10.4 0.00 0.00 0.00 11 1012.1
20260506224544 81 355 5.2 10.4 0.00 0.00 0.00 11 1012.1
20260506224043 83 283 5.2 9.6 0.00 0.00 0.00 10 1012.1
20260506223547 83 46 2.6 8.7 0.00 0.00 0.00 10 1012.2
20260506223101 83 37 3.5 9.6 0.00 0.00 0.00 11 1012.3
20260506222544 82 300 3.5 9.6 0.00 0.00 0.00 12 1012.4
20260506222042 83 333 5.2 9.6 0.00 0.00 0.00 13 1012.6
20260506221543 83 349 3.5 11.3 0.00 0.00 0.00 12 1012.5
20260506221042 83 349 6.1 11.3 0.00 0.00 0.00 11 1012.6
20260506220544 83 308 0.9 10.4 0.00 0.00 0.00 11 1012.8
20260506220043 83 14 5.2 13.0 0.00 0.00 0.00 11 1012.9
20260506215543 83 10 5.2 11.3 0.00 0.00 0.00 11 1012.9
20260506215042 83 286 1.7 11.3 0.00 0.00 0.00 12 1012.9
20260506214542 84 5 5.2 11.3 0.00 0.00 0.00 12 1013.0
20260506214042 85 21 3.5 8.7 0.00 0.00 0.00 11 1013.1
20260506213543 84 341 2.6 9.6 0.00 0.00 0.00 11 1013.1
20260506213042 84 355 2.6 10.4 0.00 0.00 0.00 11 1013.2
20260506212541 83 360 5.2 10.4 0.00 0.00 0.00 12 1013.3
20260506212042 83 5 0.9 7.8 0.00 0.00 0.00 12 1013.3
20260506211541 82 337 1.7 10.4 0.00 0.00 0.00 12 1013.4
20260506211039 81 360 5.2 10.4 0.00 0.00 0.00 12 1013.4
20260506210539 81 18 5.2 11.3 0.00 0.00 0.00 13 1013.5
20260506210041 83 355 5.2 11.3 0.00 0.00 0.00 11 1013.6
20260506205539 83 76 2.6 8.7 0.00 0.00 0.00 11 1013.5
20260506205037 83 343 1.7 11.3 0.00 0.00 0.00 10 1013.6
20260506204536 82 20 7.0 11.3 0.00 0.00 0.00 10 1013.7
20260506204036 81 330 1.7 14.8 0.00 0.00 0.00 10 1013.7
20260506203535 81 311 5.2 14.8 0.00 0.00 0.00 12 1013.7
20260506203043 81 62 6.1 11.3 0.00 0.00 0.00 11 1013.7
20260506202535 82 275 4.3 9.6 0.00 0.00 0.00 10 1013.9
20260506202035 81 5 3.5 8.7 0.00 0.00 0.00 10 1013.9
20260506201534 81 328 2.6 10.4 0.00 0.00 0.00 11 1013.9
20260506201036 79 346 2.6 10.4 0.00 0.00 0.00 11 1013.9
20260506200534 79 355 3.5 12.2 0.00 0.00 0.00 12 1014.0
20260506200037 81 298 6.1 12.2 0.00 0.00 0.00 11 1014.0
20260506195532 82 38 4.3 8.7 0.00 0.00 0.00 12 1014.0
20260506195031 81 30 4.3 8.7 0.00 0.00 0.00 13 1014.1
20260506194531 81 61 1.7 8.7 0.00 0.00 0.00 13 1014.1
20260506194029 81 35 3.5 8.7 0.00 0.00 0.00 14 1014.1
20260506193529 80 16 0.9 7.0 0.00 0.00 0.00 13 1014.3
20260506193027 80 15 2.6 7.0 0.00 0.00 0.00 13 1014.4
20260506192527 79 53 1.7 7.8 0.00 0.00 0.00 16 1014.4
20260506192028 77 347 3.5 7.8 0.00 0.00 0.00 17 1014.5
20260506191529 77 252 0.9 7.8 0.00 0.00 0.00 18 1014.6
20260506191026 79 259 3.5 8.7 0.00 0.00 0.00 16 1014.6
20260506190528 79 343 2.6 8.7 0.00 0.00 0.00 15 1014.7
20260506190024 78 355 1.7 5.2 0.00 0.00 0.00 17 1014.7
20260506185523 76 5 1.7 6.1 0.00 0.00 0.00 19 1014.8
20260506185024 74 335 1.7 7.8 0.00 0.00 0.00 19 1014.8
20260506184523 75 283 2.6 9.6 0.00 0.00 0.00 20 1014.9
20260506184023 78 289 5.2 8.7 0.00 0.00 0.00 19 1015.0
20260506183523 78 40 3.5 7.8 0.00 0.00 0.00 19 1015.0
20260506183024 78 5 2.6 9.6 0.00 0.00 0.00 19 1015.0
20260506182520 77 86 4.3 9.6 0.00 0.00 0.00 20 1015.1
20260506182021 77 13 4.3 9.6 0.00 0.00 0.00 20 1015.1
20260506181524 77 305 2.6 7.0 0.00 0.00 0.00 21 1015.1
20260506181017 76 38 2.6 7.0 0.00 0.00 0.00 22 1015.2
20260506180523 76 325 1.7 8.7 0.00 0.00 0.00 22 1015.1
20260506180025 75 350 4.3 8.7 0.00 0.00 0.00 23 1015.2
20260506175515 74 349 3.5 10.4 0.00 0.00 0.00 23 1015.2
20260506175014 74 335 5.2 10.4 0.00 0.00 0.00 23 1015.1
20260506174514 74 327 4.3 9.6 0.00 0.00 0.00 23 1015.1
20260506174013 74 26 4.3 10.4 0.00 0.00 0.00 24 1015.2
20260506173512 73 331 2.6 10.4 0.00 0.00 0.00 24 1015.1
20260506173011 73 288 5.2 9.6 0.00 0.00 0.00 24 1015.1
20260506172510 73 355 4.3 10.4 0.00 0.00 0.00 24 1015.1
20260506172012 72 19 5.2 10.4 0.00 0.00 0.00 24 1015.1
20260506171508 71 326 5.2 9.6 0.00 0.00 0.00 25 1015.1
20260506171008 71 355 4.3 9.6 0.00 0.00 0.00 25 1015.1
20260506170506 70 288 6.1 9.6 0.00 0.00 0.00 25 1015.1
20260506170007 70 331 5.2 10.4 0.00 0.00 0.00 25 1015.2
20260506165504 70 355 7.0 11.3 0.00 0.00 0.00 26 1015.3
20260506165003 69 5 6.1 11.3 0.00 0.00 0.00 26 1015.2
20260506164504 68 355 5.2 10.4 0.00 0.00 0.00 26 1015.2
20260506164004 69 338 6.1 13.0 0.00 0.00 0.00 26 1015.2
20260506163503 69 350 4.3 10.4 0.00 0.00 0.00 26 1015.2
20260506163005 69 5 3.5 13.0 0.00 0.00 0.00 26 1015.2
20260506162602 68 341 4.3 13.0 0.00 0.00 0.00 27 1015.2
20260506162100 68 340 5.2 13.0 0.00 0.00 0.00 27 1015.1
20260506161600 67 347 7.0 13.0 0.00 0.00 0.00 27 1015.1
20260506161057 67 355 7.8 16.5 0.00 0.00 0.00 27 1015.1
20260506160557 67 339 7.8 16.5 0.00 0.00 0.00 27 1015.1
20260506160107 67 344 7.0 13.9 0.00 0.00 0.00 28 1015.1
20260506155555 67 350 7.8 13.0 0.00 0.00 0.00 27 1015.0
20260506155054 67 82 7.8 13.0 0.00 0.00 0.00 28 1015.1
20260506154553 67 315 6.1 15.6 0.00 0.00 0.00 29 1015.1
20260506154052 66 5 7.8 15.6 0.00 0.00 0.00 29 1015.1
20260506153552 66 350 5.2 12.2 0.00 0.00 0.00 31 1015.0
20260506153049 66 348 4.3 10.4 0.00 0.00 0.00 32 1015.0
20260506152548 65 329 6.1 10.4 0.00 0.00 0.00 33 1014.9
20260506152048 65 302 4.3 10.4 0.00 0.00 0.00 34 1015.0
20260506151546 64 340 4.3 9.6 0.00 0.00 0.00 35 1015.0
20260506151044 63 333 5.2 9.6 0.00 0.00 0.00 36 1014.9
20260506150543 63 288 4.3 9.6 0.00 0.00 0.00 37 1014.9
20260506150042 62 355 3.5 7.8 0.00 0.00 0.00 39 1014.8
20260506145540 61 281 1.7 7.8 0.00 0.00 0.00 40 1014.9
20260506145039 61 269 2.6 9.6 0.00 0.00 0.00 41 1014.8
20260506144538 60 273 5.2 9.6 0.00 0.00 0.00 41 1014.7
20260506144039 60 240 5.2 9.6 0.00 0.00 0.00 43 1014.7
20260506143538 60 272 5.2 10.4 0.00 0.00 0.00 43 1014.6
20260506143037 60 281 7.0 10.4 0.00 0.00 0.00 45 1014.6
20260506142536 60 319 4.3 10.4 0.00 0.00 0.00 48 1014.5
20260506142036 59 307 3.5 12.2 0.00 0.00 0.00 49 1014.4
20260506141535 59 267 7.0 12.2 0.00 0.00 0.00 50 1014.3
20260506141036 59 288 8.7 13.0 0.00 0.00 0.00 50 1014.2
20260506140534 59 261 8.7 13.0 0.00 0.00 0.00 50 1014.1
20260506140037 59 261 7.8 11.3 0.00 0.00 0.00 50 1014.1
20260506135535 58 288 7.0 11.3 0.00 0.00 0.00 49 1014.1
20260506135032 58 248 7.0 11.3 0.00 0.00 0.00 48 1014.1
20260506134605 58 279 6.1 11.3 0.00 0.00 0.00 47 1014.0
20260506134030 58 280 6.1 13.0 0.00 0.00 0.00 46 1014.0
20260506133531 58 278 7.8 10.4 0.00 0.00 0.00 48 1013.8
20260506133032 57 275 4.3 10.4 0.00 0.00 0.00 51 1013.8
20260506132529 57 266 7.8 10.4 0.00 0.00 0.00 51 1013.7
20260506132029 57 254 7.0 8.7 0.00 0.00 0.00 51 1013.6
20260506131529 57 239 4.3 10.4 0.00 0.00 0.00 51 1013.5
20260506131026 58 265 3.5 10.4 0.00 0.00 0.00 49 1013.4
20260506130532 57 268 5.2 11.3 0.00 0.00 0.00 49 1013.3
20260506130027 57 255 3.5 8.7 0.00 0.00 0.00 52 1013.2
20260506125525 56 222 4.3 7.0 0.00 0.01 0.00 53 1013.2
20260506125025 56 234 2.6 7.0 0.00 0.01 0.00 53 1013.1
20260506124523 56 273 1.7 5.2 0.00 0.01 0.00 53 1013.1
20260506124022 56 276 2.6 6.1 0.00 0.01 0.00 52 1013.0
20260506123522 57 259 3.5 7.0 0.00 0.01 0.00 51 1013.0
20260506123022 58 240 3.5 9.6 0.00 0.01 0.00 50 1013.0